Location: *
(38.0461°S, 72.3274°E)
Time: 09:03:32
(UTC+00:00)

Daily predictions for brighter satellites

Satellite Brightness Start Highest point End
(mag) Time Altitude Azimuth Time Altitude Azimuth Time Altitude Azimuth
CZ-2C R/B 2.8 13:28:39 10° N 13:30:29 14° NNE 13:32:21 10° ENE
CZ-2C R/B 3.0 13:25:51 10° SSE 13:30:42 87° W 13:35:33 10° NNW
H-2A R/B 4.1 13:30:17 10° ESE 13:32:12 13° E 13:34:08 10° ENE
ARGOS 4.4 13:28:48 10° SE 13:32:39 19° E 13:36:27 10° NE
YAOGAN 1 4.5 13:33:05 10° E 13:33:27 10° E 13:33:49 10° E
Cosmos 1400 Rocket 2.9 13:30:40 10° S 13:34:48 65° E 13:38:54 10° NNE
Cosmos 2369 Rocket 3.0 13:32:34 10° SSW 13:38:13 58° WNW 13:43:48 10° N
Tiangong 3.0 13:37:56 10° N 13:40:03 17° NE 13:42:02 11° ENE
CZ-4B R/B 1.9 13:40:25 10° N 13:43:41 63° W 13:47:05 10° SSW
CZ-2D R/B 3.3 13:40:18 10° SSE 13:44:09 55° E 13:47:55 10° N
Okean 1-7 3.0 13:44:18 10° N 13:48:39 83° E 13:53:02 10° S
X-37B 2.2 13:45:46 10° W 13:48:43 30° SSW 13:51:40 10° SE
Okean 3 3.7 13:45:42 10° NNE 13:49:50 48° E 13:54:03 10° SSE
RESURS DK-1 3.6 13:46:56 10° NNE 13:50:07 21° ENE 13:53:19 10° SE
Cosmos 2074 Rocket 4.1 13:43:58 10° S 13:50:16 86° W 13:56:31 10° N
SJ 16-02 1.3 13:47:33 10° SSW 13:52:01 88° ESE 13:56:26 10° NNE
CENTAUR R/B 2.5 13:47:36 10° SW 13:52:58 62° WNW 13:57:54 10° NNE
USA 238 DEB 3.9 13:46:46 10° SW 13:53:33 74° WNW 13:59:57 10° NNE
USA 238 3.8 13:46:54 10° SW 13:53:40 74° WNW 14:00:04 10° NNE
Cosmos 1703 Rocket 3.8 13:54:23 10° NNW 13:58:46 75° W 14:03:12 10° S
CZ-4B R/B 3.2 13:53:41 10° SSE 13:58:58 59° ENE 14:04:12 10° N
Cosmos 1898 Rocket 4.5 13:55:01 10° S 13:59:30 28° ESE 14:02:43 16° ENE
Cosmos 1763 Rocket 3.5 13:54:42 10° N 13:59:41 57° ENE 14:04:47 10° SSE
Cosmos 1805 3.7 13:58:34 10° S 14:02:21 41° E 14:06:05 10° NNE
Cosmos 2242 Rocket 4.1 14:01:48 10° NNW 14:06:15 66° W 14:10:44 10° S
Cosmos 1782 Rocket 3.5 14:05:46 10° S 14:10:18 72° E 14:14:48 10° NNE
BREEZE-M DEB (TANK) 2.3 14:10:45 10° WNW 14:14:00 66° SSW 14:15:32 20° SE
CSL-04 DEB 4.4 14:11:14 10° NNE 14:15:14 87° WNW 14:19:25 10° SSW
USA 281 3.6 14:13:31 10° NNE 14:20:03 68° WNW 14:26:40 10° SSW
Cosmos 1766 3.6 14:19:09 10° S 14:23:04 44° E 14:24:51 27° NE
OE (NEXTSAT) 4.3 14:21:50 10° NW 14:25:14 60° NNE 14:26:09 42° E
Cosmos 2221 Rocket 3.7 14:28:04 10° NNE 14:32:22 50° E 14:36:46 10° SSE
Feng Yun 1-1 Rocket 4.2 14:29:11 10° SSE 14:34:55 61° ENE 14:40:26 10° N
Cosmos 962 Rocket 4.5 14:28:43 10° S 14:35:12 81° E 14:41:34 10° N
Cosmos 841 Rocket 3.5 14:30:20 10° N 14:35:21 53° ENE 14:40:24 10° SSE
CZ-4 R/B 1.3 14:35:15 10° SSE 14:39:22 59° E 14:43:19 10° N
Lacrosse 5 2.0 14:35:03 10° NW 14:40:08 75° SW 14:45:02 11° SE
IRS-1C Rocket 4.4 14:36:27 10° SSE 14:41:29 41° E 14:43:20 31° NE
Okean O Rocket 2.7 14:41:09 10° S 14:45:29 47° WSW 14:49:48 10° NW
SL-08 RB Rocket 3.6 14:41:53 10° SSE 14:46:34 75° ENE 14:51:08 10° N
SAR-Lupe-4 3.6 14:47:45 48° N 14:48:40 80° WNW 14:52:21 10° SSW
USA 234 3.2 14:45:33 30° NE 14:49:11 88° SE 14:55:51 10° SW
Cosmos 1733 4.0 14:46:58 10° SSW 14:50:43 51° W 14:53:44 14° NNW
ATLAS 3B R/B 3.3 14:44:58 10° SSW 14:51:19 37° SE 14:52:49 33° ESE
Cosmos 1300 Rocket 3.5 14:47:57 10° S 14:52:29 86° W 14:54:34 32° N
Cosmos 1689 Rocket 4.1 14:51:22 17° NW 14:52:49 26° W 14:55:16 10° SW
Cosmos 1937 Rocket 3.5 14:51:42 10° SSW 14:57:04 66° ESE 14:58:04 54° ENE
H-2A R/B 3.4 14:52:49 10° S 14:57:27 38° WSW 15:02:00 10° NW
GPS 2-04 Rocket1 4.0 14:55:16 10° W 14:57:44 26° NW 14:57:44 26° NW
Cosmos 1315 Rocket 4.2 14:55:56 10° SSW 14:59:39 38° W 15:03:00 12° NNW
Cosmos 2181 Rocket 4.0 14:53:40 10° N 15:00:05 86° W 15:06:39 10° S
ATLAS 2AS CENTAUR R/B 3.4 14:55:39 10° NW 15:01:42 49° SW 15:07:57 10° SSE
H-2A R/B 3.6 15:04:00 10° S 15:07:49 43° WSW 15:11:43 10° NW
SL-8 Rocket 4.0 15:02:03 10° S 15:08:17 81° W 15:12:47 20° N
CZ-2C R/B 3.1 15:06:22 10° WNW 15:07:22 17° NW 15:07:22 17° NW
YAOGAN 1 3.0 15:05:34 10° S 15:09:55 63° WSW 15:14:13 10° NNW
Cosmos 540 Rocket 4.1 15:06:41 10° NW 15:11:41 54° WSW 15:16:46 10° S
ARGOS 4.0 15:07:54 10° S 15:13:09 49° WSW 15:18:20 10° NW
Cosmos 1980 Rocket 4.3 15:11:21 10° SSE 15:12:39 13° SSE 15:12:39 13° SSE
Tiangong 3.7 15:13:19 10° WNW 15:14:15 18° WNW 15:14:15 18° WNW
ERS-2 3.7 15:18:43 30° SSW 15:18:43 30° SSW 15:20:44 10° SSW
Cosmos 1726 3.9 15:13:55 10° S 15:15:38 25° S 15:15:38 25° S
Okean 2 Rocket 3.4 15:14:31 10° SSW 15:19:02 65° W 15:19:09 64° WNW
X-37B 3.5 15:23:16 10° SW 15:24:21 16° SW 15:24:21 16° SW
RESURS DK-1 4.3 15:24:18 10° WNW 15:27:57 29° WSW 15:31:37 10° S
Okean-O 4.3 15:38:16 10° S 15:40:39 29° SSW 15:40:39 29° SSW
Cosmos 1697 Rocket 4.0 15:40:18 10° S 15:43:30 31° SSE 15:43:30 31° SSE
Cosmos 1656 4.1 15:40:10 10° SSW 15:44:46 59° SSW 15:44:46 59° SSW
Lacrosse 5 4.3 16:20:27 10° WSW 16:23:54 18° SSW 16:24:19 18° SSW
ATLAS 5 CENTAUR R/B 4.5 16:25:26 10° SSW 16:26:46 15° S 16:26:46 15° S
ATLAS 3B R/B 3.9 16:35:42 10° SW 16:40:05 35° WSW 16:40:05 35° WSW
Cosmos 2263 Rocket 3.7 21:46:15 31° SE 21:46:15 31° SE 21:49:18 10° SSE
Cosmos 1943 4.4 22:08:54 10° S 22:14:15 40° ESE 22:19:35 10° NE
ADEOS Rocket 4.2 22:09:58 10° S 22:12:49 30° S 22:12:49 30° S
SL-16 R/B 3.0 22:13:37 10° S 22:18:26 53° SSW 22:18:26 53° SSW
METEOR-M 4.5 22:26:16 62° SSE 22:26:16 62° SSE 22:31:01 10° S
Cosmos 1844 Rocket 4.5 22:28:12 14° NNE 22:31:45 27° ENE 22:36:23 10° SE
NOSS 3-4 (A) 3.8 22:33:47 54° NNE 22:33:47 54° NNE 22:38:22 10° NNE
NOSS 3-4 (C) 3.6 22:25:26 10° SW 22:33:40 59° NNE 22:38:29 10° NNE
Hubble Space Telescope 3.4 22:36:25 13° NE 22:36:25 13° NE 22:37:03 10° NE
ATLAS 2AS CENTAUR R/B 3.5 22:29:12 10° SSW 22:36:02 54° SE 22:43:17 10° NE
Meteor 1-10 Rocket 4.1 22:32:14 10° S 22:37:51 85° SE 22:37:51 85° SE
USA 305 4.3 22:40:45 34° ENE 22:40:45 34° ENE 22:44:19 10° ESE
Cosmos 2251 Rocket 4.2 22:44:17 43° SSW 22:44:17 43° SSW 22:48:08 10° S
USA 307 3.9 22:52:55 39° NE 22:53:05 40° NE 22:57:09 10° ESE
Cosmos 1743 Rocket 3.7 22:55:03 69° S 22:55:03 69° S 22:59:04 10° S
Cosmos 1607 4.2 22:54:16 35° N 22:56:47 64° ENE 23:02:51 10° SE
Cosmos 2228 Rocket 3.9 22:56:11 10° S 23:00:33 50° E 23:04:54 10° NNE
USA 306 3.2 23:07:27 55° N 23:08:01 61° NE 23:12:19 10° SE
S3M 4.4 23:03:41 10° S 23:10:05 66° E 23:16:27 10° NNE
Meteor 1-27 Rocket 3.6 23:05:10 10° S 23:10:49 81° W 23:16:30 10° N
YAOGAN 6 4.2 23:07:57 10° NE 23:11:11 35° ESE 23:14:29 10° S
USA 308 3.3 23:11:24 48° N 23:12:16 60° NE 23:16:34 10° SE
Cosmos 1140 Rocket 3.4 23:11:46 48° NW 23:13:11 72° WSW 23:18:30 10° SSE
CZ-4C R/B 3.7 23:11:12 10° SSE 23:15:37 73° ENE 23:18:05 24° N
DELTA 2 R/B (1) 4.2 23:17:20 35° NNW 23:17:20 35° NNW 23:22:21 10° NNE
Cosmos 1844 4.3 23:11:53 10° N 23:17:27 55° ENE 23:23:00 10° SSE
Cosmos 407 Rocket 3.6 23:17:35 43° NW 23:19:05 60° WSW 23:24:27 10° S
Lacrosse 5 3.4 23:23:37 20° NNW 23:23:37 20° NNW 23:25:32 10° N
Cosmos 839 Rocket 4.2 23:17:56 22° NNW 23:22:18 85° ENE 23:29:48 10° SSE
Cosmos 1190 Rocket 3.9 23:25:17 29° NNW 23:28:00 69° WSW 23:33:19 10° SSE
Cosmos 2263 Rocket 3.6 23:27:57 21° WSW 23:28:04 21° SW 23:32:15 10° S
H-2A R/B 2.7 23:30:13 10° NNE 23:34:04 83° ESE 23:37:57 10° S
CZ-4B R/B 3.5 23:31:43 10° NNE 23:35:23 85° W 23:39:08 10° SSW
SJ-12 3.8 23:33:30 10° N 23:37:34 69° WNW 23:41:41 10° SSW
Milstar 3 3.6 23:34:54 22° WNW 23:39:40 41° N 23:45:53 10° ENE
ERBS 4.3 23:41:30 10° N 23:44:15 25° NE 23:47:02 10° ESE
Cosmos 1707 Rocket 3.9 23:40:15 10° S 23:44:41 70° E 23:49:05 10° NNE
Lacrosse 4 Rocket 4.4 23:43:13 10° NE 23:46:06 17° ENE 23:49:00 10° ESE
CZ-4B R/B 4.4 23:41:49 10° NE 23:46:08 45° ESE 23:50:26 10° S
Sich 1 3.3 23:46:00 15° NNW 23:49:26 46° W 23:53:43 10° S
SL-08 R/B 3.3 23:45:05 10° S 23:50:01 82° WSW 23:54:47 10° NNW
Cosmos 1805 Rocket 4.2 23:48:09 23° NW 23:50:18 35° WSW 23:54:28 10° S
RESURS DK-1 4.0 23:47:39 10° S 23:51:34 37° ESE 23:55:27 10° NE
Cosmos 1633 Rocket 3.1 23:48:35 10° N 23:52:59 83° E 23:57:27 10° S
Cosmos 1553 Rocket 4.5 23:47:45 10° SSW 23:53:14 35° W 23:58:39 10° NNW
